| time (UTC) | temp F | wind direction | speed MPH | gust MPH | rain 1hr in | rain 24hr in | rain mn in | humidity % | barometer mb |
| 20260509112841 | 75 | 109 | 0.0 | 3.0 | 0.00 | 0.04 | 0.00 | 100 | 1010.0 |
| 20260509112315 | 74 | 112 | 0.0 | 2.0 | 0.00 | 0.04 | 0.00 | 100 | 1009.8 |
| 20260509111748 | 74 | 112 | 0.0 | 2.0 | 0.00 | 0.04 | 0.00 | 100 | 1009.7 |
| 20260509111245 | 74 | 112 | 0.0 | 3.0 | 0.00 | 0.04 | 0.00 | 100 | 1009.6 |
| 20260509110744 | 74 | 112 | 1.0 | 3.0 | 0.00 | 0.04 | 0.00 | 100 | 1009.6 |
| 20260509110239 | 74 | 112 | 1.0 | 3.0 | 0.00 | 0.04 | 0.00 | 100 | 1009.5 |
| 20260509105712 | 74 | 112 | 0.0 | 3.0 | 0.00 | 0.04 | 0.00 | 100 | 1009.4 |
| 20260509105209 | 74 | 142 | 0.0 | 0.0 | 0.00 | 0.04 | 0.00 | 100 | 1009.3 |
| 20260509104643 | 75 | 141 | 0.0 | 0.0 | 0.00 | 0.04 | 0.00 | 100 | 1009.1 |
| 20260509104138 | 75 | 142 | 0.0 | 0.0 | 0.00 | 0.04 | 0.00 | 100 | 1008.9 |
| 20260509103906 | 75 | 142 | 0.0 | 0.0 | 0.00 | 0.04 | 0.00 | 100 | 1009.0 |
| 20260509103340 | 75 | 142 | 0.0 | 0.0 | 0.00 | 0.04 | 0.00 | 100 | 1009.1 |
| 20260509102837 | 75 | 142 | 0.0 | 0.0 | 0.00 | 0.04 | 0.00 | 100 | 1009.0 |
| 20260509102039 | 75 | 141 | 0.0 | 0.0 | 0.00 | 0.04 | 0.00 | 100 | 1008.9 |
| 20260509101744 | 75 | 142 | 0.0 | 0.0 | 0.00 | 0.04 | 0.00 | 100 | 1009.0 |
| 20260509101009 | 75 | 142 | 0.0 | 0.0 | 0.00 | 0.04 | 0.00 | 100 | 1008.9 |
| 20260509100506 | 75 | 142 | 0.0 | 0.0 | 0.00 | 0.04 | 0.00 | 100 | 1008.9 |
| 20260509100005 | 75 | 142 | 0.0 | 0.0 | 0.00 | 0.04 | 0.00 | 100 | 1008.9 |
| 20260509095437 | 75 | 142 | 0.0 | 0.0 | 0.00 | 0.04 | 0.00 | 100 | 1008.8 |
| 20260509094935 | 75 | 142 | 0.0 | 0.0 | 0.00 | 0.04 | 0.00 | 100 | 1009.0 |
| 20260509094407 | 75 | 142 | 0.0 | 0.0 | 0.00 | 0.04 | 0.00 | 100 | 1008.8 |
| 20260509093841 | 75 | 142 | 0.0 | 0.0 | 0.00 | 0.04 | 0.00 | 100 | 1008.8 |
| 20260509093337 | 75 | 141 | 1.0 | 2.0 | 0.00 | 0.04 | 0.00 | 100 | 1009.0 |
| 20260509092853 | 75 | 142 | 1.0 | 2.0 | 0.00 | 0.04 | 0.00 | 100 | 1008.9 |
| 20260509091742 | 75 | 145 | 0.0 | 2.0 | 0.00 | 0.04 | 0.00 | 100 | 1009.0 |
| 20260509091237 | 75 | 145 | 0.0 | 2.0 | 0.00 | 0.04 | 0.00 | 100 | 1009.1 |
| 20260509090710 | 75 | 145 | 0.0 | 1.0 | 0.00 | 0.04 | 0.00 | 100 | 1009.1 |
| 20260509090206 | 75 | 145 | 0.0 | 1.0 | 0.00 | 0.04 | 0.00 | 100 | 1009.0 |
| 20260509085702 | 75 | 145 | 0.0 | 0.0 | 0.00 | 0.04 | 0.00 | 100 | 1009.1 |
| 20260509085159 | 75 | 145 | 0.0 | 1.0 | 0.00 | 0.04 | 0.00 | 100 | 1008.9 |
| 20260509084633 | 75 | 145 | 0.0 | 1.0 | 0.00 | 0.04 | 0.00 | 100 | 1008.9 |
| 20260509084106 | 75 | 145 | 0.0 | 4.0 | 0.00 | 0.04 | 0.00 | 100 | 1008.9 |
| 20260509083606 | 75 | 145 | 1.0 | 4.0 | 0.00 | 0.04 | 0.00 | 100 | 1008.7 |
| 20260509083038 | 75 | 145 | 2.0 | 6.0 | 0.00 | 0.04 | 0.00 | 100 | 1008.7 |
| 20260509082510 | 76 | 130 | 2.0 | 6.0 | 0.00 | 0.04 | 0.00 | 100 | 1008.7 |
| 20260509082007 | 76 | 135 | 1.0 | 5.0 | 0.00 | 0.04 | 0.00 | 100 | 1009.0 |
| 20260509081442 | 76 | 127 | 0.0 | 4.0 | 0.00 | 0.04 | 0.00 | 100 | 1009.1 |
| 20260509080917 | 76 | 127 | 2.0 | 7.0 | 0.00 | 0.04 | 0.00 | 99 | 1008.9 |
| 20260509080647 | 76 | 127 | 2.0 | 7.0 | 0.00 | 0.04 | 0.00 | 99 | 1008.8 |
| 20260509075855 | 76 | 133 | 1.0 | 3.0 | 0.00 | 0.04 | 0.00 | 99 | 1008.9 |
| 20260509075356 | 76 | 131 | 0.0 | 3.0 | 0.00 | 0.04 | 0.00 | 99 | 1009.0 |
| 20260509074855 | 76 | 131 | 1.0 | 3.0 | 0.00 | 0.04 | 0.00 | 99 | 1009.0 |
| 20260509074352 | 76 | 131 | 1.0 | 4.0 | 0.00 | 0.04 | 0.00 | 99 | 1008.9 |
| 20260509073852 | 76 | 131 | 0.0 | 4.0 | 0.00 | 0.04 | 0.00 | 99 | 1009.1 |
| 20260509073353 | 76 | 131 | 1.0 | 5.0 | 0.00 | 0.04 | 0.00 | 100 | 1009.3 |
| 20260509073100 | 76 | 131 | 1.0 | 5.0 | 0.00 | 0.04 | 0.00 | 100 | 1009.3 |
| 20260509072308 | 76 | 174 | 1.0 | 3.0 | 0.00 | 0.04 | 0.00 | 100 | 1009.4 |
| 20260509071750 | 76 | 174 | 1.0 | 3.0 | 0.00 | 0.04 | 0.00 | 100 | 1009.3 |
| 20260509071250 | 76 | 178 | 2.0 | 6.0 | 0.00 | 0.04 | 0.00 | 100 | 1009.5 |
| 20260509070723 | 76 | 179 | 3.0 | 6.0 | 0.00 | 0.04 | 0.00 | 100 | 1009.4 |
| 20260509070222 | 76 | 147 | 2.0 | 6.0 | 0.00 | 0.04 | 0.00 | 100 | 1009.4 |
| 20260509065706 | 76 | 89 | 1.0 | 4.0 | 0.00 | 0.04 | 0.00 | 100 | 1009.4 |
| 20260509065148 | 76 | 85 | 1.0 | 4.0 | 0.00 | 0.04 | 0.00 | 100 | 1009.4 |
| 20260509064922 | 76 | 85 | 0.0 | 4.0 | 0.00 | 0.04 | 0.00 | 100 | 1009.4 |
| 20260509064138 | 76 | 81 | 0.0 | 3.0 | 0.00 | 0.04 | 0.00 | 100 | 1009.3 |
| 20260509063910 | 76 | 81 | 0.0 | 3.0 | 0.00 | 0.04 | 0.00 | 100 | 1009.4 |
| 20260509063134 | 75 | 81 | 1.0 | 3.0 | 0.00 | 0.04 | 0.00 | 100 | 1009.4 |
| 20260509062633 | 75 | 81 | 0.0 | 3.0 | 0.00 | 0.04 | 0.00 | 100 | 1009.4 |
| 20260509062342 | 75 | 81 | 0.0 | 2.0 | 0.00 | 0.04 | 0.00 | 100 | 1009.4 |
| 20260509061546 | 75 | 79 | 0.0 | 0.0 | 0.00 | 0.04 | 0.00 | 100 | 1009.4 |
| 20260509061022 | 75 | 79 | 0.0 | 0.0 | 0.00 | 0.04 | 0.00 | 100 | 1009.6 |
| 20260509060459 | 74 | 79 | 0.0 | 0.0 | 0.00 | 0.04 | 0.00 | 100 | 1009.6 |
| 20260509055932 | 74 | 79 | 0.0 | 0.0 | 0.00 | 0.04 | 0.00 | 99 | 1009.6 |
| 20260509055405 | 74 | 79 | 0.0 | 0.0 | 0.00 | 0.04 | 0.00 | 99 | 1009.6 |
| 20260509054901 | 74 | 79 | 0.0 | 0.0 | 0.00 | 0.04 | 0.00 | 99 | 1009.7 |
| 20260509054838 | 74 | 79 | 0.0 | 0.0 | 0.00 | 0.04 | 0.00 | 99 | 1009.7 |
| 20260509053809 | 74 | 79 | 0.0 | 0.0 | 0.00 | 0.04 | 0.00 | 99 | 1009.6 |
| 20260509053307 | 74 | 79 | 0.0 | 0.0 | 0.00 | 0.04 | 0.00 | 99 | 1009.7 |
| 20260509052740 | 74 | 79 | 0.0 | 0.0 | 0.00 | 0.04 | 0.00 | 99 | 1009.7 |
| 20260509052215 | 74 | 79 | 0.0 | 1.0 | 0.00 | 0.04 | 0.00 | 99 | 1009.7 |
| 20260509051647 | 74 | 79 | 0.0 | 1.0 | 0.00 | 0.04 | 0.00 | 99 | 1009.8 |
| 20260509051146 | 74 | 79 | 0.0 | 2.0 | 0.00 | 0.04 | 0.00 | 99 | 1009.7 |
| 20260509050848 | 74 | 79 | 0.0 | 2.0 | 0.00 | 0.04 | 0.00 | 99 | 1009.7 |
| 20260509050052 | 74 | 79 | 0.0 | 0.0 | 0.00 | 0.04 | 0.00 | 99 | 1009.7 |
| 20260509045552 | 74 | 79 | 0.0 | 1.0 | 0.00 | 0.04 | 0.04 | 99 | 1009.9 |
| 20260509045542 | 74 | 79 | 0.0 | 1.0 | 0.00 | 0.04 | 0.04 | 99 | 1010.0 |
| 20260509044535 | 74 | 79 | 0.0 | 1.0 | 0.00 | 0.04 | 0.04 | 99 | 1009.9 |
| 20260509044009 | 74 | 79 | 1.0 | 3.0 | 0.00 | 0.04 | 0.04 | 99 | 1009.9 |
| 20260509043731 | 74 | 79 | 1.0 | 3.0 | 0.00 | 0.04 | 0.04 | 99 | 1009.9 |
| 20260509042958 | 74 | 79 | 1.0 | 3.0 | 0.00 | 0.04 | 0.04 | 99 | 1009.9 |
| 20260509042457 | 74 | 79 | 0.0 | 1.0 | 0.00 | 0.04 | 0.04 | 99 | 1010.0 |
| 20260509041956 | 74 | 79 | 0.0 | 1.0 | 0.00 | 0.04 | 0.04 | 99 | 1009.9 |
| 20260509041438 | 74 | 79 | 1.0 | 3.0 | 0.00 | 0.04 | 0.04 | 99 | 1009.9 |
| 20260509040934 | 74 | 79 | 1.0 | 4.0 | 0.00 | 0.04 | 0.04 | 99 | 1009.8 |
| 20260509040503 | 74 | 79 | 1.0 | 4.0 | 0.00 | 0.04 | 0.04 | 99 | 1009.5 |
| 20260509035339 | 74 | 87 | 1.0 | 4.0 | 0.00 | 0.04 | 0.04 | 99 | 1009.4 |
| 20260509034816 | 74 | 85 | 1.0 | 4.0 | 0.00 | 0.04 | 0.04 | 99 | 1009.5 |
| 20260509034256 | 74 | 85 | 0.0 | 4.0 | 0.00 | 0.04 | 0.04 | 99 | 1009.5 |
| 20260509033730 | 74 | 88 | 0.0 | 2.0 | 0.00 | 0.04 | 0.04 | 99 | 1009.4 |
| 20260509033513 | 74 | 89 | 1.0 | 4.0 | 0.00 | 0.04 | 0.04 | 99 | 1009.4 |
| 20260509032706 | 74 | 89 | 1.0 | 4.0 | 0.00 | 0.04 | 0.04 | 99 | 1009.5 |
| 20260509032142 | 74 | 64 | 1.0 | 4.0 | 0.00 | 0.04 | 0.04 | 99 | 1009.6 |
| 20260509031640 | 74 | 64 | 1.0 | 4.0 | 0.00 | 0.04 | 0.04 | 99 | 1009.5 |
| 20260509031141 | 74 | 64 | 1.0 | 3.0 | 0.00 | 0.04 | 0.04 | 99 | 1009.2 |
| 20260509030615 | 74 | 64 | 1.0 | 3.0 | 0.00 | 0.04 | 0.04 | 99 | 1009.3 |
| 20260509030112 | 74 | 64 | 1.0 | 4.0 | 0.00 | 0.04 | 0.04 | 99 | 1009.5 |
| 20260509025612 | 74 | 64 | 2.0 | 5.0 | 0.00 | 0.04 | 0.04 | 98 | 1009.3 |
| 20260509025042 | 74 | 70 | 2.0 | 5.0 | 0.00 | 0.04 | 0.04 | 98 | 1009.3 |
| 20260509024515 | 74 | 70 | 2.0 | 4.0 | 0.00 | 0.04 | 0.04 | 98 | 1009.1 |
| 20260509024013 | 74 | 70 | 2.0 | 5.0 | 0.00 | 0.04 | 0.04 | 98 | 1009.2 |
| 20260509023717 | 74 | 70 | 3.0 | 5.0 | 0.00 | 0.04 | 0.04 | 98 | 1009.2 |
| 20260509022946 | 74 | 75 | 2.0 | 5.0 | 0.00 | 0.04 | 0.04 | 98 | 1009.2 |
| 20260509022416 | 74 | 60 | 2.0 | 7.0 | 0.00 | 0.04 | 0.04 | 98 | 1009.0 |
| 20260509021851 | 74 | 61 | 3.0 | 9.0 | 0.00 | 0.04 | 0.04 | 97 | 1008.8 |
| 20260509021348 | 74 | 46 | 3.0 | 9.0 | 0.00 | 0.04 | 0.04 | 97 | 1008.8 |
| 20260509020823 | 74 | 54 | 3.0 | 7.0 | 0.00 | 0.04 | 0.04 | 97 | 1008.9 |
| 20260509020253 | 74 | 62 | 2.0 | 7.0 | 0.00 | 0.04 | 0.04 | 97 | 1008.8 |
| 20260509015750 | 74 | 79 | 2.0 | 7.0 | 0.00 | 0.04 | 0.04 | 97 | 1008.8 |
| 20260509015247 | 74 | 85 | 2.0 | 7.0 | 0.00 | 0.04 | 0.04 | 97 | 1008.8 |
| 20260509014745 | 74 | 77 | 3.0 | 7.0 | 0.00 | 0.04 | 0.04 | 97 | 1008.8 |
| 20260509014217 | 74 | 55 | 3.0 | 6.0 | 0.00 | 0.04 | 0.04 | 97 | 1008.5 |
| 20260509013714 | 74 | 70 | 2.0 | 6.0 | 0.00 | 0.04 | 0.04 | 97 | 1008.6 |
| 20260509013146 | 75 | 79 | 2.0 | 6.0 | 0.00 | 0.04 | 0.04 | 97 | 1008.7 |
| 20260509012619 | 75 | 86 | 2.0 | 6.0 | 0.00 | 0.04 | 0.04 | 96 | 1008.7 |
| 20260509012140 | 75 | 83 | 1.0 | 4.0 | 0.00 | 0.04 | 0.04 | 96 | 1008.7 |
| 20260509011549 | 75 | 84 | 1.0 | 4.0 | 0.00 | 0.04 | 0.04 | 96 | 1008.7 |
| 20260509011046 | 75 | 83 | 2.0 | 6.0 | 0.00 | 0.04 | 0.04 | 96 | 1008.7 |
| 20260509010520 | 75 | 75 | 2.0 | 6.0 | 0.00 | 0.04 | 0.04 | 96 | 1008.7 |
| 20260509010018 | 75 | 81 | 2.0 | 6.0 | 0.00 | 0.04 | 0.04 | 96 | 1008.7 |
| 20260509005513 | 75 | 85 | 1.0 | 6.0 | 0.00 | 0.04 | 0.04 | 96 | 1008.6 |
| 20260509005010 | 75 | 102 | 1.0 | 6.0 | 0.00 | 0.04 | 0.04 | 96 | 1008.6 |
| 20260509004444 | 75 | 112 | 2.0 | 6.0 | 0.00 | 0.04 | 0.04 | 96 | 1008.6 |
| 20260509003913 | 75 | 100 | 1.0 | 5.0 | 0.00 | 0.04 | 0.04 | 96 | 1008.5 |
| 20260509003642 | 75 | 68 | 2.0 | 7.0 | 0.00 | 0.04 | 0.04 | 96 | 1008.5 |
| 20260509002845 | 75 | 78 | 2.0 | 7.0 | 0.00 | 0.04 | 0.04 | 96 | 1008.4 |
| 20260509002326 | 75 | 59 | 3.0 | 10.0 | 0.00 | 0.04 | 0.04 | 96 | 1008.5 |
| 20260509001751 | 75 | 89 | 3.0 | 10.0 | 0.00 | 0.04 | 0.04 | 96 | 1008.5 |
| 20260509001520 | 75 | 42 | 4.0 | 9.0 | 0.00 | 0.04 | 0.04 | 96 | 1008.6 |
| 20260509000745 | 74 | 77 | 3.0 | 8.0 | 0.00 | 0.04 | 0.04 | 96 | 1008.5 |
| 20260509000243 | 74 | 79 | 3.0 | 8.0 | 0.00 | 0.04 | 0.04 | 96 | 1008.7 |
| 20260508235718 | 74 | 72 | 2.0 | 7.0 | 0.00 | 0.04 | 0.04 | 97 | 1008.6 |
| 20260508235227 | 74 | 75 | 3.0 | 8.0 | 0.00 | 0.04 | 0.04 | 97 | 1008.6 |
| 20260508234955 | 74 | 77 | 3.0 | 8.0 | 0.00 | 0.04 | 0.04 | 97 | 1008.7 |
| 20260508234143 | 74 | 79 | 2.0 | 6.0 | 0.00 | 0.04 | 0.04 | 97 | 1008.7 |
| 20260508233641 | 74 | 74 | 2.0 | 4.0 | 0.00 | 0.04 | 0.04 | 97 | 1008.9 |
| 20260508233116 | 74 | 67 | 1.0 | 5.0 | 0.00 | 0.04 | 0.04 | 97 | 1008.8 |
| 20260508232612 | 74 | 66 | 2.0 | 5.0 | 0.00 | 0.04 | 0.04 | 97 | 1009.0 |
| 20260508232317 | 74 | 66 | 3.0 | 5.0 | 0.00 | 0.04 | 0.04 | 97 | 1009.0 |
| 20260508231543 | 74 | 66 | 2.0 | 6.0 | 0.00 | 0.04 | 0.04 | 97 | 1008.9 |
| 20260508231015 | 74 | 71 | 2.0 | 6.0 | 0.00 | 0.04 | 0.04 | 97 | 1008.8 |
| 20260508230747 | 74 | 68 | 2.0 | 5.0 | 0.00 | 0.04 | 0.04 | 97 | 1008.8 |
| 20260508225956 | 74 | 63 | 2.0 | 5.0 | 0.00 | 0.04 | 0.04 | 97 | 1008.7 |
| 20260508225444 | 74 | 56 | 2.0 | 6.0 | 0.00 | 0.04 | 0.04 | 97 | 1008.6 |
| 20260508224939 | 74 | 58 | 2.0 | 6.0 | 0.00 | 0.04 | 0.04 | 97 | 1008.6 |
| 20260508224438 | 74 | 87 | 1.0 | 4.0 | 0.00 | 0.04 | 0.04 | 98 | 1008.7 |
| 20260508223936 | 74 | 84 | 1.0 | 4.0 | 0.00 | 0.04 | 0.04 | 98 | 1008.8 |
| 20260508223439 | 74 | 73 | 3.0 | 9.0 | 0.00 | 0.04 | 0.04 | 98 | 1008.7 |
| 20260508223434 | 74 | 76 | 1.0 | 6.0 | 0.00 | 0.04 | 0.04 | 98 | 1008.7 |
| 20260508222649 | 74 | 84 | 3.0 | 9.0 | 0.00 | 0.04 | 0.04 | 98 | 1008.8 |
| 20260508221844 | 74 | 73 | 2.0 | 8.0 | 0.00 | 0.04 | 0.04 | 99 | 1008.8 |
| 20260508221326 | 73 | 62 | 3.0 | 8.0 | 0.00 | 0.04 | 0.04 | 99 | 1008.9 |
| 20260508220810 | 73 | 60 | 4.0 | 8.0 | 0.00 | 0.04 | 0.04 | 99 | 1008.9 |
| 20260508220539 | 73 | 80 | 3.0 | 8.0 | 0.00 | 0.04 | 0.04 | 100 | 1008.8 |
| 20260508215807 | 73 | 130 | 3.0 | 6.0 | 0.00 | 0.04 | 0.04 | 100 | 1008.9 |
| 20260508215526 | 73 | 85 | 3.0 | 7.0 | 0.00 | 0.04 | 0.04 | 100 | 1008.9 |
| 20260508214755 | 73 | 73 | 2.0 | 7.0 | 0.00 | 0.04 | 0.04 | 100 | 1008.9 |
| 20260508214234 | 72 | 80 | 1.0 | 4.0 | 0.00 | 0.04 | 0.04 | 100 | 1009.0 |
| 20260508213939 | 72 | 83 | 1.0 | 6.0 | 0.00 | 0.04 | 0.04 | 100 | 1009.2 |
| 20260508213209 | 72 | 82 | 1.0 | 6.0 | 0.00 | 0.04 | 0.04 | 100 | 1009.2 |
| 20260508212920 | 72 | 81 | 1.0 | 3.0 | 0.00 | 0.04 | 0.04 | 100 | 1009.1 |
| 20260508212125 | 72 | 81 | 2.0 | 6.0 | 0.00 | 0.04 | 0.04 | 100 | 1009.2 |
| 20260508211837 | 72 | 82 | 2.0 | 6.0 | 0.00 | 0.04 | 0.04 | 100 | 1009.3 |
| 20260508211039 | 72 | 63 | 2.0 | 5.0 | 0.00 | 0.04 | 0.04 | 100 | 1009.4 |
| 20260508210538 | 71 | 65 | 2.0 | 5.0 | 0.00 | 0.04 | 0.04 | 100 | 1009.2 |
| 20260508210018 | 71 | 68 | 2.0 | 5.0 | 0.00 | 0.04 | 0.04 | 100 | 1009.2 |
| 20260508205456 | 71 | 69 | 2.0 | 6.0 | 0.00 | 0.04 | 0.04 | 100 | 1009.3 |
| 20260508204922 | 71 | 87 | 2.0 | 6.0 | 0.00 | 0.04 | 0.04 | 100 | 1009.4 |
| 20260508204651 | 71 | 85 | 2.0 | 4.0 | 0.00 | 0.04 | 0.04 | 100 | 1009.4 |
| 20260508204355 | 71 | 85 | 2.0 | 4.0 | 0.00 | 0.04 | 0.04 | 100 | 1009.4 |
| 20260508203325 | 71 | 91 | 2.0 | 6.0 | 0.00 | 0.04 | 0.04 | 100 | 1009.6 |
| 20260508202800 | 71 | 89 | 2.0 | 6.0 | 0.00 | 0.04 | 0.04 | 100 | 1009.4 |
| 20260508202505 | 71 | 78 | 2.0 | 6.0 | 0.00 | 0.04 | 0.04 | 100 | 1009.4 |
| 20260508201727 | 71 | 84 | 1.0 | 6.0 | 0.00 | 0.04 | 0.04 | 100 | 1009.7 |
| 20260508201224 | 71 | 97 | 0.0 | 4.0 | 0.00 | 0.04 | 0.04 | 100 | 1009.6 |
| 20260508200658 | 71 | 77 | 0.0 | 2.0 | 0.00 | 0.04 | 0.04 | 100 | 1009.7 |
| 20260508200154 | 71 | 77 | 1.0 | 4.0 | 0.00 | 0.04 | 0.04 | 100 | 1009.9 |
| 20260508195627 | 70 | 80 | 1.0 | 4.0 | 0.00 | 0.04 | 0.04 | 100 | 1009.9 |
| 20260508195123 | 70 | 80 | 1.0 | 4.0 | 0.00 | 0.04 | 0.04 | 100 | 1010.1 |
| 20260508194601 | 70 | 97 | 2.0 | 4.0 | 0.00 | 0.04 | 0.04 | 100 | 1010.3 |
| 20260508194557 | 70 | 80 | 2.0 | 4.0 | 0.00 | 0.04 | 0.04 | 100 | 1010.2 |
| 20260508193527 | 70 | 64 | 2.0 | 5.0 | 0.00 | 0.04 | 0.04 | 100 | 1010.4 |
| 20260508193023 | 70 | 52 | 1.0 | 4.0 | 0.00 | 0.04 | 0.04 | 100 | 1010.4 |
| 20260508192456 | 70 | 41 | 1.0 | 5.0 | 0.00 | 0.04 | 0.04 | 100 | 1010.5 |
| 20260508191953 | 69 | 41 | 2.0 | 4.0 | 0.00 | 0.04 | 0.04 | 100 | 1010.5 |
| 20260508191427 | 69 | 41 | 2.0 | 5.0 | 0.00 | 0.04 | 0.04 | 100 | 1010.5 |
| 20260508190900 | 69 | 41 | 2.0 | 5.0 | 0.00 | 0.04 | 0.04 | 100 | 1010.6 |
| 20260508190357 | 69 | 42 | 2.0 | 5.0 | 0.00 | 0.04 | 0.04 | 100 | 1010.5 |
| 20260508185830 | 69 | 70 | 2.0 | 6.0 | 0.00 | 0.04 | 0.04 | 100 | 1010.5 |
| 20260508185330 | 69 | 64 | 2.0 | 6.0 | 0.00 | 0.04 | 0.04 | 100 | 1010.6 |
| 20260508184801 | 69 | 49 | 3.0 | 9.0 | 0.01 | 0.04 | 0.04 | 100 | 1010.6 |
| 20260508184234 | 69 | 27 | 4.0 | 9.0 | 0.01 | 0.04 | 0.04 | 100 | 1010.6 |
| 20260508183731 | 69 | 63 | 4.0 | 9.0 | 0.01 | 0.04 | 0.04 | 100 | 1010.5 |
| 20260508183438 | 69 | 58 | 3.0 | 9.0 | 0.01 | 0.04 | 0.04 | 100 | 1010.5 |
| 20260508182638 | 69 | 37 | 3.0 | 6.0 | 0.01 | 0.04 | 0.04 | 100 | 1010.6 |
| 20260508182153 | 69 | 49 | 2.0 | 5.0 | 0.01 | 0.04 | 0.04 | 100 | 1010.9 |
| 20260508180514 | 69 | 81 | 3.0 | 9.0 | 0.02 | 0.04 | 0.04 | 100 | 1010.8 |
| 20260508175949 | 69 | 97 | 3.0 | 8.0 | 0.02 | 0.04 | 0.04 | 100 | 1011.0 |
| 20260508175716 | 68 | 90 | 4.0 | 8.0 | 0.02 | 0.04 | 0.04 | 100 | 1011.1 |
| 20260508174943 | 68 | 107 | 2.0 | 8.0 | 0.01 | 0.03 | 0.04 | 100 | 1011.2 |
| 20260508174417 | 68 | 73 | 2.0 | 5.0 | 0.01 | 0.03 | 0.03 | 100 | 1011.3 |
| 20260508174120 | 68 | 70 | 2.0 | 5.0 | 0.01 | 0.03 | 0.03 | 99 | 1011.4 |
| 20260508173346 | 68 | 56 | 2.0 | 6.0 | 0.02 | 0.03 | 0.03 | 99 | 1011.6 |
| 20260508172844 | 68 | 11 | 2.0 | 6.0 | 0.02 | 0.03 | 0.03 | 99 | 1011.7 |
| 20260508172341 | 68 | 48 | 2.0 | 6.0 | 0.02 | 0.03 | 0.03 | 99 | 1011.7 |
| 20260508171839 | 68 | 104 | 2.0 | 6.0 | 0.02 | 0.03 | 0.03 | 99 | 1011.7 |
| 20260508171313 | 68 | 130 | 2.0 | 4.0 | 0.02 | 0.03 | 0.03 | 99 | 1011.7 |
| 20260508170810 | 68 | 80 | 4.0 | 9.0 | 0.01 | 0.02 | 0.02 | 99 | 1011.7 |
| 20260508170306 | 67 | 60 | 4.0 | 9.0 | 0.01 | 0.02 | 0.02 | 99 | 1011.5 |
| 20260508165742 | 67 | 66 | 4.0 | 8.0 | 0.01 | 0.02 | 0.02 | 99 | 1011.6 |
| 20260508165215 | 67 | 61 | 5.0 | 10.0 | 0.01 | 0.02 | 0.02 | 99 | 1011.6 |
| 20260508164650 | 67 | 52 | 5.0 | 9.0 | 0.01 | 0.02 | 0.02 | 98 | 1011.9 |
| 20260508164146 | 67 | 54 | 4.0 | 10.0 | 0.01 | 0.02 | 0.02 | 98 | 1011.9 |
| 20260508163623 | 67 | 54 | 3.0 | 10.0 | 0.00 | 0.01 | 0.01 | 98 | 1011.9 |
| 20260508163106 | 67 | 52 | 3.0 | 11.0 | 0.00 | 0.01 | 0.01 | 98 | 1012.0 |
| 20260508162605 | 67 | 64 | 5.0 | 11.0 | 0.00 | 0.01 | 0.01 | 98 | 1012.1 |
| 20260508162056 | 67 | 39 | 5.0 | 11.0 | 0.00 | 0.01 | 0.01 | 98 | 1012.3 |
| 20260508161554 | 67 | 43 | 5.0 | 12.0 | 0.00 | 0.01 | 0.01 | 98 | 1012.4 |
| 20260508161054 | 67 | 56 | 5.0 | 12.0 | 0.01 | 0.01 | 0.01 | 98 | 1012.5 |
| 20260508160556 | 67 | 55 | 4.0 | 10.0 | 0.01 | 0.01 | 0.01 | 98 | 1012.5 |
| 20260508160033 | 67 | 52 | 4.0 | 9.0 | 0.01 | 0.01 | 0.01 | 98 | 1012.7 |
| 20260508155514 | 67 | 38 | 4.0 | 9.0 | 0.01 | 0.01 | 0.01 | 97 | 1012.9 |
| 20260508155217 | 67 | 28 | 3.0 | 6.0 | 0.01 | 0.01 | 0.01 | 97 | 1012.9 |
| 20260508154433 | 67 | 49 | 3.0 | 7.0 | 0.01 | 0.01 | 0.01 | 97 | 1012.7 |
| 20260508154427 | 67 | 37 | 3.0 | 7.0 | 0.01 | 0.01 | 0.01 | 97 | 1012.7 |
| 20260508153407 | 67 | 22 | 4.0 | 11.0 | 0.01 | 0.01 | 0.01 | 97 | 1012.6 |
| 20260508152847 | 67 | 29 | 4.0 | 11.0 | 0.01 | 0.01 | 0.01 | 96 | 1012.5 |
| 20260508152344 | 67 | 29 | 5.0 | 12.0 | 0.01 | 0.01 | 0.01 | 96 | 1012.5 |
| 20260508151827 | 68 | 43 | 6.0 | 12.0 | 0.01 | 0.01 | 0.01 | 96 | 1012.5 |
| 20260508151330 | 68 | 29 | 7.0 | 12.0 | 0.00 | 0.00 | 0.00 | 95 | 1012.5 |
| 20260508150829 | 68 | 354 | 7.0 | 12.0 | 0.00 | 0.00 | 0.00 | 94 | 1012.9 |
| 20260508150558 | 68 | 27 | 6.0 | 13.0 | 0.00 | 0.00 | 0.00 | 94 | 1012.6 |
| 20260508145826 | 68 | 23 | 5.0 | 13.0 | 0.00 | 0.00 | 0.00 | 94 | 1012.4 |
| 20260508145321 | 69 | 54 | 6.0 | 13.0 | 0.00 | 0.00 | 0.00 | 93 | 1012.3 |
| 20260508145051 | 69 | 70 | 6.0 | 13.0 | 0.00 | 0.00 | 0.00 | 92 | 1012.3 |
| 20260508144253 | 69 | 42 | 5.0 | 14.0 | 0.00 | 0.00 | 0.00 | 92 | 1012.7 |
| 20260508143726 | 69 | 12 | 5.0 | 14.0 | 0.00 | 0.00 | 0.00 | 91 | 1012.6 |
| 20260508143159 | 69 | 354 | 4.0 | 12.0 | 0.00 | 0.00 | 0.00 | 91 | 1012.9 |
| 20260508142655 | 69 | 62 | 5.0 | 10.0 | 0.00 | 0.00 | 0.00 | 91 | 1012.7 |
| 20260508142130 | 69 | 74 | 4.0 | 10.0 | 0.00 | 0.00 | 0.00 | 91 | 1012.6 |
| 20260508141606 | 69 | 22 | 2.0 | 7.0 | 0.00 | 0.00 | 0.00 | 91 | 1013.0 |
| 20260508141037 | 69 | 39 | 2.0 | 6.0 | 0.00 | 0.00 | 0.00 | 91 | 1012.5 |
| 20260508140536 | 69 | 98 | 2.0 | 7.0 | 0.00 | 0.00 | 0.00 | 91 | 1012.6 |
| 20260508140008 | 69 | 93 | 3.0 | 7.0 | 0.00 | 0.00 | 0.00 | 91 | 1012.2 |
| 20260508135441 | 69 | 116 | 3.0 | 6.0 | 0.00 | 0.00 | 0.00 | 91 | 1012.3 |
| 20260508134940 | 69 | 100 | 2.0 | 6.0 | 0.00 | 0.00 | 0.00 | 91 | 1012.5 |
| 20260508134412 | 69 | 83 | 2.0 | 7.0 | 0.00 | 0.00 | 0.00 | 91 | 1012.5 |
| 20260508133845 | 69 | 85 | 2.0 | 7.0 | 0.00 | 0.00 | 0.00 | 90 | 1012.5 |
| 20260508133343 | 69 | 93 | 3.0 | 7.0 | 0.00 | 0.00 | 0.00 | 90 | 1012.5 |
| 20260508132816 | 69 | 73 | 3.0 | 7.0 | 0.00 | 0.00 | 0.00 | 90 | 1012.3 |
| 20260508132312 | 69 | 30 | 2.0 | 4.0 | 0.00 | 0.00 | 0.00 | 90 | 1012.6 |
| 20260508131809 | 69 | 38 | 2.0 | 4.0 | 0.00 | 0.00 | 0.00 | 90 | 1012.6 |
| 20260508131306 | 69 | 56 | 2.0 | 5.0 | 0.00 | 0.00 | 0.00 | 89 | 1012.5 |
| 20260508130759 | 69 | 27 | 2.0 | 6.0 | 0.00 | 0.00 | 0.00 | 89 | 1012.6 |
| 20260508130257 | 69 | 26 | 2.0 | 6.0 | 0.00 | 0.00 | 0.00 | 89 | 1012.5 |
| 20260508130000 | 69 | 45 | 2.0 | 5.0 | 0.00 | 0.00 | 0.00 | 89 | 1012.7 |
| 20260508125227 | 69 | 48 | 2.0 | 5.0 | 0.00 | 0.00 | 0.00 | 89 | 1012.6 |
| 20260508124723 | 69 | 47 | 3.0 | 6.0 | 0.00 | 0.00 | 0.00 | 90 | 1012.6 |
| 20260508124220 | 69 | 29 | 3.0 | 7.0 | 0.00 | 0.00 | 0.00 | 90 | 1012.5 |
| 20260508123653 | 69 | 32 | 3.0 | 7.0 | 0.00 | 0.00 | 0.00 | 90 | 1012.3 |
| 20260508123422 | 69 | 32 | 3.0 | 6.0 | 0.00 | 0.00 | 0.00 | 90 | 1012.3 |
| 20260508122624 | 69 | 38 | 2.0 | 6.0 | 0.00 | 0.00 | 0.00 | 91 | 1012.2 |
| 20260508122120 | 68 | 62 | 3.0 | 6.0 | 0.00 | 0.00 | 0.00 | 91 | 1012.3 |
| 20260508121553 | 68 | 52 | 3.0 | 7.0 | 0.00 | 0.00 | 0.00 | 91 | 1012.5 |
| 20260508121049 | 68 | 25 | 3.0 | 9.0 | 0.00 | 0.00 | 0.00 | 91 | 1012.8 |
| 20260508120525 | 68 | 354 | 4.0 | 9.0 | 0.00 | 0.00 | 0.00 | 91 | 1012.8 |
| 20260508115957 | 68 | 36 | 5.0 | 11.0 | 0.00 | 0.00 | 0.00 | 91 | 1012.6 |
| 20260508115453 | 68 | 30 | 3.0 | 10.0 | 0.00 | 0.00 | 0.00 | 91 | 1012.6 |
| 20260508114928 | 68 | 21 | 4.0 | 10.0 | 0.00 | 0.00 | 0.00 | 92 | 1012.7 |
| 20260508114402 | 68 | 29 | 5.0 | 10.0 | 0.00 | 0.00 | 0.00 | 92 | 1012.6 |
| 20260508113858 | 68 | 14 | 5.0 | 11.0 | 0.00 | 0.00 | 0.00 | 92 | 1012.6 |
| 20260508113627 | 68 | 37 | 5.0 | 11.0 | 0.00 | 0.00 | 0.00 | 92 | 1012.6 |